Terminal Aerodrome Forecast
Issued by NWS Mt. Holly, NJ

Home | Current Version | Previous Version | Text Only | Print | Product List | Glossary On
Versions: 1 2 3 4 5 6 7 8 9 10 11 12 13 14 15 16 17 18 19 20 21
960
FTUS41 KPHI 181239 AAA
TAFILG
TAF AMD
KILG 181239Z 1813/1912 19007KT P6SM VCSH OVC008
     FM181400 18008KT P6SM OVC015
     FM181700 19010KT P6SM FEW030 BKN080
     FM182300 20011KT 5SM -SHRA VCTS SCT025CB BKN050 PROB30
      1900/1903 2SM TSRA BKN025CB
     FM190400 22006KT P6SM FEW030 OVC060=

USA.gov is the U.S. government's official web portal to all federal, state and local government web resources and services.